• In Hungary
  • List of Countries
  • For 7 days
  • Water Temperature
  • Satellite Maps
  • Weather Map
  • News
  • Weather Widgets
  • user-avatar
    Login

    Hourly Weather Cullera

    Today, 23 January, Tuesday

    Time Temperature Precipitation Wind Pressure Humidity
    00:00 +13°C° 0 mm 3 mps 765 mmHg 64%
    01:00 +12°C° 0 mm 3 mps 765 mmHg 67%
    02:00 +12°C° 0 mm 3 mps 765 mmHg 70%
    03:00 +12°C° 0 mm 4 mps 765 mmHg 72%
    04:00 +12°C° 0 mm 3 mps 765 mmHg 74%
    05:00 +12°C° 0 mm 3 mps 765 mmHg 75%
    06:00 +11°C° 0 mm 3 mps 765 mmHg 76%
    07:00 +13°C° 0 mm 3 mps 765 mmHg 71%
    08:00 +15°C° 0 mm 2 mps 765 mmHg 67%
    09:00 +16°C° 0 mm 2 mps 765 mmHg 62%
    10:00 +18°C° 0 mm 2 mps 765 mmHg 55%
    11:00 +21°C° 0 mm 1 mps 765 mmHg 48%
    12:00 +23°C° 0 mm 1 mps 765 mmHg 41%
    13:00 +24°C° 0 mm 2 mps 765 mmHg 39%
    14:00 +24°C° 0 mm 3 mps 765 mmHg 38%
    15:00 +25°C° 0 mm 3 mps 765 mmHg 36%
    16:00 +21°C° 0 mm 3 mps 765 mmHg 45%
    17:00 +18°C° 0 mm 3 mps 765 mmHg 55%
    18:00 +16°C° 0 mm 3 mps 765 mmHg 64%
    19:00 +15°C° 0 mm 2 mps 766 mmHg 69%
    20:00 +14°C° 0 mm 1 mps 766 mmHg 75%
    21:00 +14°C° 0 mm 1 mps 766 mmHg 80%
    22:00 +14°C° 0 mm 1 mps 766 mmHg 80%
    23:00 +13°C° 0 mm 1 mps 767 mmHg 80%

    Tomorrow, 24 January, Wednesday

    Time Temperature Precipitation Wind Pressure Humidity
    00:00 +13°C° 0 mm 1 mps 767 mmHg 80%
    01:00 +13°C° 0 mm 1 mps 767 mmHg 80%
    02:00 +13°C° 0 mm 1 mps 766 mmHg 79%
    03:00 +12°C° 0 mm 1 mps 766 mmHg 79%
    04:00 +12°C° 0 mm 1 mps 766 mmHg 79%
    05:00 +12°C° 0 mm 1 mps 766 mmHg 79%
    06:00 +11°C° 0 mm 0 mps 766 mmHg 79%
    07:00 +12°C° 0 mm 0 mps 766 mmHg 73%
    08:00 +14°C° 0 mm 0 mps 766 mmHg 68%
    09:00 +15°C° 0 mm 0 mps 767 mmHg 62%
    10:00 +19°C° 0 mm 1 mps 766 mmHg 56%
    11:00 +20°C° 0 mm 1 mps 766 mmHg 50%
    12:00 +22°C° 0 mm 1 mps 766 mmHg 43%
    13:00 +21°C° 0 mm 2 mps 766 mmHg 42%
    14:00 +21°C° 0 mm 3 mps 765 mmHg 41%
    15:00 +22°C° 0 mm 3 mps 765 mmHg 40%
    16:00 +20°C° 0 mm 3 mps 765 mmHg 50%
    17:00 +17°C° 0 mm 3 mps 765 mmHg 59%
    18:00 +14°C° 0 mm 3 mps 765 mmHg 69%
    19:00 +14°C° 0 mm 3 mps 765 mmHg 72%
    20:00 +13°C° 0 mm 3 mps 765 mmHg 75%
    21:00 +13°C° 0 mm 3 mps 765 mmHg 78%
    22:00 +13°C° 0 mm 3 mps 765 mmHg 78%
    23:00 +13°C° 0 mm 3 mps 765 mmHg 78%

    Day after tomorrow, 25 January, Thursday

    Time Temperature Precipitation Wind Pressure Humidity
    00:00 +13°C° 0 mm 2 mps 764 mmHg 77%
    01:00 +13°C° 0 mm 2 mps 764 mmHg 77%
    02:00 +13°C° 0 mm 2 mps 764 mmHg 77%
    03:00 +13°C° 0 mm 2 mps 764 mmHg 76%
    04:00 +13°C° 0 mm 2 mps 763 mmHg 75%
    05:00 +11°C° 0 mm 3 mps 763 mmHg 73%
    06:00 +11°C° 0 mm 3 mps 763 mmHg 72%
    07:00 +12°C° 0 mm 3 mps 763 mmHg 67%
    08:00 +13°C° 0 mm 3 mps 763 mmHg 62%
    09:00 +14°C° 0 mm 3 mps 763 mmHg 57%
    10:00 +17°C° 0 mm 4 mps 763 mmHg 52%
    11:00 +18°C° 0 mm 4 mps 762 mmHg 46%
    12:00 +20°C° 0 mm 4 mps 762 mmHg 41%
    13:00 +20°C° 0 mm 4 mps 761 mmHg 39%
    14:00 +21°C° 0 mm 5 mps 760 mmHg 37%
    15:00 +21°C° 0 mm 5 mps 759 mmHg 36%
    16:00 +19°C° 0 mm 5 mps 759 mmHg 40%
    17:00 +17°C° 0 mm 5 mps 759 mmHg 45%
    18:00 +15°C° 0 mm 5 mps 759 mmHg 50%
    19:00 +15°C° 0 mm 6 mps 759 mmHg 57%
    20:00 +15°C° 0 mm 6 mps 759 mmHg 64%
    21:00 +14°C° 0 mm 7 mps 759 mmHg 71%
    22:00 +12°C° 0 mm 7 mps 759 mmHg 71%
    23:00 +12°C° 0 mm 7 mps 759 mmHg 71%

    26 January, Friday

    Time Temperature Precipitation Wind Pressure Humidity
    00:00 +11°C° 0 mm 8 mps 759 mmHg 70%
    01:00 +10°C° 0 mm 8 mps 759 mmHg 67%
    02:00 +8°C° 0 mm 9 mps 759 mmHg 65%
    03:00 +8°C° 0 mm 9 mps 759 mmHg 62%
    04:00 +7°C° 0 mm 9 mps 760 mmHg 64%
    05:00 +6°C° 0 mm 9 mps 760 mmHg 66%
    06:00 +5°C° 0 mm 9 mps 760 mmHg 69%
    07:00 +6°C° 0 mm 8 mps 761 mmHg 65%
    08:00 +6°C° 0 mm 8 mps 761 mmHg 61%
    09:00 +7°C° 0 mm 8 mps 762 mmHg 57%
    10:00 +9°C° 0 mm 7 mps 762 mmHg 50%
    11:00 +10°C° 0 mm 6 mps 762 mmHg 43%
    12:00 +13°C° 0 mm 6 mps 762 mmHg 35%
    13:00 +13°C° 0 mm 5 mps 762 mmHg 34%
    14:00 +13°C° 0 mm 5 mps 762 mmHg 33%
    15:00 +13°C° 0 mm 4 mps 762 mmHg 32%
    16:00 +12°C° 0.1 mm 5 mps 762 mmHg 37%
    17:00 +10°C° 0.1 mm 6 mps 763 mmHg 41%
    18:00 +9°C° 0.1 mm 7 mps 763 mmHg 45%
    19:00 +7°C° 0.1 mm 8 mps 764 mmHg 48%
    20:00 +7°C° 0.1 mm 9 mps 764 mmHg 51%
    21:00 +6°C° 0.1 mm 9 mps 765 mmHg 55%
    22:00 +6°C° 0.1 mm 9 mps 765 mmHg 57%
    23:00 +5°C° 0.1 mm 9 mps 765 mmHg 58%

    27 January, Saturday

    Time Temperature Precipitation Wind Pressure Humidity
    00:00 +5°C° 0.1 mm 9 mps 765 mmHg 60%
    01:00 +5°C° 0.1 mm 8 mps 765 mmHg 62%
    02:00 +4°C° 0.1 mm 8 mps 765 mmHg 63%
    03:00 +4°C° 0.1 mm 7 mps 765 mmHg 65%
    04:00 +4°C° 0 mm 7 mps 765 mmHg 66%
    05:00 +4°C° 0 mm 7 mps 766 mmHg 66%
    06:00 +4°C° 0 mm 7 mps 766 mmHg 67%
    07:00 +5°C° 0 mm 7 mps 766 mmHg 63%
    08:00 +6°C° 0 mm 7 mps 766 mmHg 59%
    09:00 +8°C° 0 mm 6 mps 766 mmHg 55%
    10:00 +10°C° 0 mm 6 mps 766 mmHg 49%
    11:00 +11°C° 0 mm 6 mps 766 mmHg 43%
    12:00 +13°C° 0 mm 6 mps 765 mmHg 38%
    13:00 +13°C° 0 mm 6 mps 765 mmHg 38%
    14:00 +13°C° 0 mm 6 mps 764 mmHg 37%
    15:00 +13°C° 0 mm 6 mps 764 mmHg 37%
    16:00 +11°C° 0 mm 6 mps 764 mmHg 42%
    17:00 +10°C° 0 mm 6 mps 764 mmHg 48%
    18:00 +8°C° 0 mm 5 mps 764 mmHg 53%
    19:00 +7°C° 0.1 mm 5 mps 765 mmHg 58%
    20:00 +6°C° 0.1 mm 5 mps 765 mmHg 63%
    21:00 +5°C° 0.1 mm 5 mps 765 mmHg 67%
    22:00 +5°C° 0.1 mm 5 mps 766 mmHg 67%
    23:00 +5°C° 0.1 mm 5 mps 766 mmHg 67%

    28 January, Sunday

    Time Temperature Precipitation Wind Pressure Humidity
    00:00 +5°C° 0.1 mm 5 mps 766 mmHg 67%
    01:00 +3°C° 0 mm 5 mps 766 mmHg 66%
    02:00 +4°C° 0 mm 4 mps 766 mmHg 65%
    03:00 +3°C° 0 mm 4 mps 766 mmHg 64%
    04:00 +3°C° 0.1 mm 5 mps 766 mmHg 64%
    05:00 +3°C° 0.1 mm 6 mps 766 mmHg 63%
    06:00 +4°C° 0.1 mm 7 mps 766 mmHg 63%
    07:00 +4°C° 0.3 mm 8 mps 766 mmHg 62%
    08:00 +5°C° 0.3 mm 10 mps 766 mmHg 61%
    09:00 +6°C° 0.3 mm 11 mps 765 mmHg 60%
    10:00 +5°C° 1.2 mm 13 mps 765 mmHg 67%
    11:00 +6°C° 1.2 mm 14 mps 764 mmHg 74%
    12:00 +6°C° 1.2 mm 16 mps 764 mmHg 82%
    13:00 +7°C° 1 mm 16 mps 763 mmHg 82%
    14:00 +7°C° 1 mm 16 mps 763 mmHg 82%
    15:00 +7°C° 1 mm 16 mps 762 mmHg 82%
    16:00 +7°C° 0.9 mm 17 mps 762 mmHg 85%
    17:00 +7°C° 0.9 mm 17 mps 763 mmHg 88%
    18:00 +7°C° 0.9 mm 17 mps 763 mmHg 90%
    19:00 +7°C° 0.5 mm 16 mps 764 mmHg 91%
    20:00 +9°C° 0.5 mm 15 mps 765 mmHg 91%
    21:00 +9°C° 0.5 mm 14 mps 766 mmHg 91%
    22:00 +8°C° 0.1 mm 12 mps 766 mmHg 91%
    23:00 +8°C° 0.1 mm 9 mps 767 mmHg 91%
    Show more